This demonstration page uses our WeatherBlox Daily Observations layout. Learn more.

Left ArrowRight Arrow

Hourly Observations for October 8, 2018

Temp ( °F °C ) Dew Point ( °F °C ) Humidity (%) Winds ( mph kmh ) Pressure ( in mb ) Visibility ( mi km ) Precip ( " mm )
12:57 am 00:57 Cloudy 46 7.8 45 7.2 96 96 NE 9 15 29.98 1015 10 16 0.01 0.25
1:57 am 01:57 Cloudy with Light Rain 46 7.8 45 7.2 96 96 NE 13 20 29.97 1015 4 6 0.00 0.03
2:55 am 02:55 Cloudy with Light Rain 46 8 45 7 93 93 N 8 13 29.97 1015 3 4 0.00 0.00
2:57 am 02:57 Cloudy with Light Rain 46 7.8 45 7.2 96 96 N 9 15 29.97 1015 3 4 0.01 0.25
3:06 am 03:06 Cloudy with Light Rain 46 8 45 7 93 93 NNE 12 19 29.94 1014 4 6 0.00 0.03
3:27 am 03:27 Cloudy with Light Rain 45 7 45 7 100 100 NNE 15 24 29.97 1015 3 5 0.01 0.25
3:46 am 03:46 Cloudy with Light Rain 45 7 45 7 100 100 NNE 14 22 29.94 1014 4 6 0.02 0.51
3:57 am 03:57 Cloudy with Light Rain 45 7.2 45 7.2 100 100 NNE 14 22 29.92 1013 4 6 0.03 0.76
4:26 am 04:26 Cloudy with Light Rain 45 7 45 7 100 100 N 10 17 29.94 1014 3 4 0.00 0.03
4:57 am 04:57 Cloudy with Light Rain 45 7.2 44 6.7 97 97 N 13 20 29.93 1014 3 4 0.00 0.03
5:10 am 05:10 Cloudy with Light Rain 45 7 45 7 100 100 N 13 20 29.94 1014 3 5 0.00 0.03
5:57 am 05:57 Cloudy 44 6.7 44 6.7 100 100 N 13 20 29.92 1013 7 11 0.01 0.25
6:47 am 06:47 Cloudy with Light Rain 45 7 43 6 93 93 N 13 20 29.97 1015 3 4 0.00 0.00
6:57 am 06:57 Cloudy with Rain 44 6.7 43 6.1 96 96 N 15 24 29.95 1014 3 5 0.02 0.51
7:57 am 07:57 Cloudy with Light Rain 43 6.1 42 5.6 97 97 N 14 22 29.97 1015 10 16 0.02 0.51
8:57 am 08:57 Cloudy with Light Rain 43 6.1 43 6.1 100 100 NNE 14 22 29.97 1015 8 13 0.02 0.51
9:13 am 09:13 Cloudy with Light Rain 45 7 43 6 93 93 NNE 16 26 29.97 1015 6 10 0.00 0.00
9:57 am 09:57 Cloudy with Light Rain 44 6.7 43 6.1 96 96 NNE 15 24 29.96 1015 10 16 0.02 0.51
10:57 am 10:57 Cloudy with Light Rain 45 7.2 44 6.7 97 97 NE 13 20 29.94 1014 10 16 0.01 0.25
11:57 am 11:57 Cloudy with Light Rain 46 7.8 45 7.2 96 96 NE 10 17 29.94 1014 10 16 0.01 0.25
12:57 pm 12:57 Cloudy with Light Rain 47 8.3 46 7.8 97 97 NE 10 17 29.93 1014 10 16 0.01 0.25
1:40 pm 13:40 Cloudy with Light Rain 46 8 46 8 100 100 NNW 12 19 29.94 1014 2 3 0.01 0.25
1:57 pm 13:57 Cloudy with Light Rain 47 8.3 46 7.8 97 97 N 13 20 29.91 1013 1 2 0.02 0.51
2:08 pm 14:08 Cloudy with Light Rain 46 8 46 8 100 100 NNW 13 20 29.91 1013 2 3 0.00 0.03
2:27 pm 14:27 Cloudy with Light Rain 46 8 46 8 100 100 NNW 12 19 29.94 1014 1 2 0.00 0.00
2:52 pm 14:52 Cloudy with Light Rain 45 7 45 7 100 100 NNW 15 24 29.94 1014 3 5 0.00 0.03
2:53 pm 14:53 Cloudy with Light Rain 45 7.2 44 6.7 97 97 NNW 13 20 29.91 1013 3 5 0.00 0.03
3:17 pm 15:17 Cloudy 45 7 45 7 100 100 NNW 17 28 29.94 1014 10 16 0.00 0.00
3:57 pm 15:57 Cloudy 45 7.2 43 6.1 93 93 N 18 30 29.92 1013 10 16 0.00 0.03
4:13 pm 16:13 Cloudy 45 7 43 6 93 93 NNE 17 28 29.94 1014 10 16 0.00 0.00
4:45 pm 16:45 Cloudy 46 8 43 6 87 87 N 14 22 29.94 1014 10 16 0.00 0.00
4:57 pm 16:57 Cloudy 46 7.8 43 6.1 89 89 N 12 19 29.96 1015 10 16 0.00 0.00
5:57 pm 17:57 Cloudy 45 7.2 43 6.1 93 93 NNE 15 24 29.93 1014 10 16 0.00 0.00
6:57 pm 18:57 Cloudy 45 7.2 43 6.1 93 93 N 12 19 29.95 1014 10 16 0.00 0.00
7:57 pm 19:57 Cloudy 45 7.2 43 6.1 93 93 N 12 19 29.97 1015 10 16 0.00 0.00
8:57 pm 20:57 Cloudy 44 6.7 42 5.6 93 93 NNE 9 15 29.98 1015 10 16 0.00 0.00
9:11 pm 21:11 Cloudy with Light Rain 45 7 43 6 93 93 N 10 17 30.00 1016 7 11 0.00 0.00
9:57 pm 21:57 Cloudy 44 6.7 43 6.1 96 96 N 9 15 30.00 1016 10 16 0.00 0.03
10:57 pm 22:57 Cloudy 44 6.7 43 6.1 96 96 N 8 13 30.01 1016 10 16 0.00 0.00
11:27 pm 23:27 Cloudy with Light Rain 45 7 43 6 93 93 N 10 17 30.03 1017 5 8 0.00 0.03
11:57 pm 23:57 Cloudy 44 6.7 43 6.1 96 96 N 12 19 30.01 1016 7 11 0.00 0.03

Powered by AerisWeather